Location: Unspecified
(29.9680°N, 0.0000°E)
Time: 12:58:22
(UTC+00:00)

Transit 2A - All Passes

Search period start: 20 June 2019 00:00
Search period end: 30 June 2019 00:00
Orbit: 593 x 966 km, 66.7° (Epoch: 20 June)

Date Brightness Start Highest point End Pass type
(mag) Time Alt. Az. Time Alt. Az. Time Alt. Az.
20 Jun - 01:31:27 10° WSW 01:36:19 23° NW 01:41:11 10° N visible
20 Jun - 08:43:15 10° NNE 08:45:17 12° NE 08:47:16 10° ENE daylight
20 Jun - 10:23:53 10° NNW 10:29:11 72° WSW 10:33:55 10° SSE daylight
20 Jun - 23:13:09 10° S 23:18:47 36° ESE 23:24:30 10° NE visible
21 Jun - 00:56:26 10° WSW 01:02:00 32° WNW 01:07:37 10° N visible
21 Jun - 09:49:46 10° NNW 09:55:07 72° ENE 09:59:52 10° SSE daylight
21 Jun - 22:39:58 10° SSE 22:44:51 24° ESE 22:49:48 10° NE visible
22 Jun - 00:21:45 10° SW 00:27:45 46° WNW 00:33:50 10° NNE visible
22 Jun - 09:15:50 10° NNW 09:20:57 45° ENE 09:25:32 10° SE daylight
22 Jun - 11:00:45 10° WNW 11:03:30 15° WSW 11:06:09 10° SW daylight
22 Jun - 22:07:22 10° SE 22:10:57 16° ESE 22:14:34 10° ENE visible
22 Jun - 23:47:20 10° SW 23:53:35 67° WNW 23:59:56 10° NNE visible
23 Jun - 08:42:04 10° N 08:46:42 29° ENE 08:50:54 10° ESE daylight
23 Jun - 10:25:34 10° NW 10:29:39 24° WSW 10:33:27 10° SSW daylight
23 Jun - 23:13:10 10° SSW 23:19:28 85° ESE 23:25:52 10° NNE visible
24 Jun - 01:00:02 10° W 01:03:25 15° NW 01:06:48 10° NNW visible
24 Jun - 08:08:34 10° N 08:12:22 19° NE 08:15:55 10° E daylight
24 Jun - 09:50:56 10° NW 09:55:45 39° WSW 10:00:06 10° S daylight
24 Jun - 22:39:15 10° S 22:45:24 59° ESE 22:51:39 10° NNE visible
25 Jun - 00:24:22 10° WSW 00:29:01 21° NW 00:33:41 10° N visible
25 Jun - 07:35:35 10° NNE 07:37:58 13° NE 07:40:15 10° ENE daylight
25 Jun - 09:16:35 10° NNW 09:21:46 64° WSW 09:26:24 10° SSE daylight
25 Jun - 22:05:38 10° S 22:11:25 39° ESE 22:17:15 10° NE visible
25 Jun - 23:49:14 10° WSW 23:54:42 30° WNW 00:00:10 10° N visible
26 Jun - 08:42:26 10° NNW 08:47:43 79° ENE 08:52:25 10° SSE daylight
26 Jun - 21:32:21 10° SSE 21:37:28 26° ESE 21:42:37 10° NE visible
26 Jun - 23:14:29 10° SW 23:20:26 42° WNW 23:26:26 10° N visible
27 Jun - 08:08:27 10° NNW 08:13:33 49° ENE 08:18:09 10° SE daylight
27 Jun - 09:53:50 10° WNW 09:56:02 13° WSW 09:58:10 10° SW daylight
27 Jun - 20:59:35 10° SE 21:03:33 18° ESE 21:07:33 10° ENE visible
27 Jun - 22:40:01 10° SW 22:46:15 61° WNW 22:52:32 10° NNE visible
28 Jun - 07:34:39 10° N 07:39:20 31° ENE 07:43:35 10° ESE daylight
28 Jun - 09:18:24 10° NW 09:22:11 21° WSW 09:25:44 10° SSW daylight
28 Jun - 20:28:16 10° ESE 20:29:42 11° ESE 20:31:07 10° E visible
28 Jun - 22:05:48 10° SSW 22:12:08 88° WNW 22:18:31 10° NNE visible
28 Jun - 23:53:09 10° W 23:56:08 13° NW 23:59:06 10° NNW visible
29 Jun - 07:01:06 10° N 07:05:01 21° NE 07:08:40 10° ESE daylight
29 Jun - 08:43:41 10° NW 08:48:18 34° WSW 08:52:30 10° S daylight
29 Jun - 21:31:50 10° S 21:38:03 64° ESE 21:44:20 10° NNE visible
29 Jun - 23:17:18 10° W 23:21:43 19° NW 23:26:08 10° N visible
